Waarnemingen

Advertentie
Mijn weer
Pembrey Sands, Groot Brittannië (3605): temperatuur & dauwpunt: 14.06.2018 16:00:00 - 20.06.2018 16:00:00 (BST)Pembrey Sands, Groot Brittannië (3605): windsnelheid & windstoten: 14.06.2018 16:00:00 - 20.06.2018 16:00:00 (BST)Pembrey Sands, Groot Brittannië (3605): windrichting: 14.06.2018 16:00:00 - 20.06.2018 16:00:00 (BST)Pembrey Sands, Groot Brittannië (3605): luchtdruk: 14.06.2018 16:00:00 - 20.06.2018 16:00:00 (BST)Pembrey Sands, Groot Brittannië (3605): zicht: 14.06.2018 16:00:00 - 20.06.2018 16:00:00 (BST)Pembrey Sands, Groot Brittannië (3605): neerslag: 14.06.2018 16:00:00 - 20.06.2018 16:00:00 (BST)
Datum & Tijd tt [°C] td [°C] ff [km/u] ff [kn] fx [km/u] fx [kn] dd ppp [hPa] vv [km] rr [mm]
20.06.2018 16:00:00 - - - - - - - - - -
20.06.2018 15:00:00 - - - - - - - - - -
20.06.2018 14:00:00 - - - - - - - - - -
20.06.2018 13:00:00 - - - - - - - - - -
20.06.2018 12:00:00 15,2 14,9 29 16 50 27 WZW 1020,6 3,9 0,0
20.06.2018 11:00:00 15,4 15,2 37 20 46 25 ZZW 1020,2 1,4 0,0
20.06.2018 10:00:00 15,1 14,8 39 21 52 28 ZZW 1020,1 3,4 0,2
20.06.2018 09:00:00 14,8 14,5 42 23 52 28 ZZW 1019,9 6 0,0
20.06.2018 08:00:00 14,5 14,2 44 24 52 28 ZZW 1019,8 5 0,0
20.06.2018 07:00:00 14,5 14,0 44 24 54 29 ZZW 1019,9 12 0,0
20.06.2018 06:00:00 14,4 13,9 44 24 52 28 ZZW 1019,7 21 0,0
20.06.2018 05:00:00 14,4 14,1 42 23 50 27 ZZW 1020,0 10 0,0
20.06.2018 04:00:00 14,5 14,0 39 21 - - ZZW 1020,6 7 0,0
20.06.2018 03:00:00 14,8 14,1 35 19 46 25 ZZW 1020,9 20 0,0
20.06.2018 02:00:00 15,1 14,4 34 18 - - ZZW 1021,2 12 0,0
20.06.2018 01:00:00 15,2 14,6 26 14 - - ZZW 1021,7 8 0,0
20.06.2018 00:00:00 15,2 14,6 26 14 - - ZZW 1022,0 8 0,0
19.06.2018 23:00:00 15,4 14,7 24 13 - - ZW 1022,4 9 0,0
19.06.2018 22:00:00 15,4 14,8 28 15 - - ZW 1022,2 9 0,0
19.06.2018 21:00:00 15,4 14,8 26 14 - - ZW 1022,1 12 0,0
19.06.2018 20:00:00 15,6 15,1 24 13 - - ZZW 1022,4 13 0,0
19.06.2018 19:00:00 15,6 15,3 22 12 - - ZZW 1022,6 10 0,0
19.06.2018 18:00:00 15,5 15,3 22 12 - - WZW 1022,9 1,4 0,0
19.06.2018 17:00:00 15,7 15,5 28 15 - - ZW 1022,9 0,8 0,0
19.06.2018 16:00:00 15,8 15,6 24 13 - - ZW 1023,0 1,2 0,0
19.06.2018 15:00:00 15,7 15,5 29 16 - - ZZW 1023,1 1,2 0,0
19.06.2018 14:00:00 15,8 15,6 28 15 - - ZZW 1023,1 1,1 0,0
19.06.2018 13:00:00 15,8 15,6 29 16 - - ZW 1023,2 2,3 0,0
19.06.2018 12:00:00 15,3 15,1 29 16 - - ZZW 1023,1 0,6 0,2
19.06.2018 11:00:00 15,3 15,1 29 16 - - ZZW 1023,0 2,0 0,0
19.06.2018 10:00:00 15,5 15,2 24 13 - - ZZW 1023,1 2,4 0,0
19.06.2018 09:00:00 15,2 14,8 22 12 - - ZZW 1023,0 1,5 0,2
19.06.2018 08:00:00 14,8 14,0 13 7 - - ZW 1022,8 4,9 0,0
19.06.2018 07:00:00 14,3 13,7 18 10 - - W 1022,6 8 0,0
19.06.2018 06:00:00 14,2 13,6 21 11 - - W 1022,3 9 0,0
19.06.2018 05:00:00 14,3 13,7 22 12 - - W 1022,1 12 0,0
19.06.2018 04:00:00 14,5 14,0 22 12 - - W 1022,0 7 0,0
19.06.2018 03:00:00 14,6 14,1 24 13 - - W 1021,9 6 0,0
19.06.2018 02:00:00 14,8 14,2 29 16 - - W 1021,9 8 0,0
19.06.2018 01:00:00 15,0 14,5 26 14 - - W 1021,7 4,2 -
19.06.2018 00:00:00 15,1 14,7 29 16 - - W 1021,5 6 0,0
18.06.2018 23:00:00 15,1 14,6 34 18 50 27 WZW 1021,5 2,5 0,0
18.06.2018 22:00:00 15,2 14,7 37 20 50 27 WZW 1021,2 2,6 0,0
18.06.2018 21:00:00 15,3 14,9 46 25 55 30 WZW 1020,4 3,7 0,0
18.06.2018 20:00:00 15,4 15,0 46 25 54 29 ZW 1020,0 5 0,0
18.06.2018 19:00:00 15,6 15,1 41 22 54 29 ZW 1019,7 2,6 0,0
18.06.2018 18:00:00 15,9 15,4 41 22 48 26 ZW 1019,6 4,4 0,0
18.06.2018 17:00:00 15,8 15,2 35 19 - - ZW 1019,7 3,3 0,0
18.06.2018 16:00:00 15,7 14,8 29 16 - - ZW 1020,1 12 0,0
18.06.2018 15:00:00 16,1 15,3 35 19 - - ZW 1019,8 6 0,0
18.06.2018 14:00:00 15,2 14,5 37 20 48 26 ZZW 1020,2 5 0,0
18.06.2018 13:00:00 14,6 14,0 28 15 - - ZZW 1020,3 4,6 0,0
18.06.2018 12:00:00 14,1 13,1 26 14 - - ZW 1020,8 4,1 0,0
18.06.2018 11:00:00 14,3 12,0 31 17 - - WZW 1020,5 6 0,0
18.06.2018 10:00:00 15,3 11,7 24 13 - - ZW 1020,1 10 0,0
18.06.2018 09:00:00 14,6 11,0 28 15 - - WZW 1020,0 14 0,0
18.06.2018 08:00:00 14,5 10,9 21 11 - - W 1019,4 21 0,0
18.06.2018 07:00:00 14,1 11,3 28 15 - - W 1019,0 24 0,0
18.06.2018 06:00:00 13,9 11,7 31 17 - - W 1018,4 26 0,0
18.06.2018 05:00:00 14,0 12,4 28 15 - - W 1017,6 18 0,0
18.06.2018 04:00:00 14,1 12,4 31 17 - - WZW 1017,1 17 0,0
18.06.2018 03:00:00 14,4 12,8 31 17 - - W 1017,1 16 0,0
18.06.2018 02:00:00 14,5 12,8 31 17 - - W 1017,2 15 0,0
18.06.2018 01:00:00 14,6 13,0 34 18 - - WZW 1017,1 13 0,0
18.06.2018 00:00:00 14,7 13,1 34 18 - - WZW 1016,8 12 0,0
17.06.2018 23:00:00 14,7 13,0 29 16 - - ZW 1016,5 9 0,0
17.06.2018 22:00:00 14,5 13,1 37 20 46 25 WZW 1016,5 13 0,0
17.06.2018 21:00:00 15,3 14,4 34 18 - - ZW 1015,4 7 0,0
17.06.2018 20:00:00 15,4 14,4 29 16 - - ZW 1015,4 8 0,0
17.06.2018 19:00:00 16,1 14,7 26 14 - - ZW 1015,0 12 0,0
17.06.2018 18:00:00 16,3 15,0 29 16 - - ZW 1014,8 12 0,0
17.06.2018 17:00:00 15,4 14,7 34 18 - - ZW 1014,5 9 0,0
17.06.2018 16:00:00 15,6 14,9 34 18 - - ZZW 1014,2 11 0,2
17.06.2018 15:00:00 15,3 14,9 37 20 48 26 ZW 1014,3 6 0,0
17.06.2018 14:00:00 14,7 14,1 42 23 52 28 ZZW 1014,0 14 0,0
17.06.2018 13:00:00 14,0 13,5 44 24 55 30 Z 1014,2 11 0,0
17.06.2018 12:00:00 13,8 13,3 41 22 50 27 Z 1014,4 5 0,2
17.06.2018 11:00:00 13,6 12,8 35 19 - - ZZW 1014,9 4,8 0,2
17.06.2018 10:00:00 13,4 12,6 34 18 - - ZZW 1015,2 9 0,6
17.06.2018 09:00:00 13,3 12,3 31 17 - - ZZW 1015,4 5 0,2
17.06.2018 08:00:00 13,5 11,3 22 12 - - ZZW 1015,3 6 0,0
17.06.2018 07:00:00 13,6 10,7 24 13 - - WZW 1015,3 19 0,0
17.06.2018 06:00:00 13,3 10,5 26 14 - - W 1015,0 24 0,0
17.06.2018 05:00:00 13,1 10,8 31 17 - - W 1015,2 21 0,4
17.06.2018 04:00:00 13,6 11,4 28 15 - - W 1014,9 12 0,0
17.06.2018 03:00:00 13,8 11,3 31 17 - - W 1014,8 15 0,0
17.06.2018 02:00:00 14,0 11,5 26 14 - - W 1014,8 17 0,0
17.06.2018 01:00:00 14,1 11,7 28 15 - - W 1015,0 15 0,0
17.06.2018 00:00:00 14,0 11,9 31 17 - - W 1014,9 10 0,0
16.06.2018 23:00:00 14,0 11,7 35 19 - - W 1014,9 11 0,0
16.06.2018 22:00:00 14,2 11,6 31 17 50 27 W 1014,5 11 0,0
16.06.2018 21:00:00 14,5 11,3 31 17 46 25 W 1014,2 13 0,0
16.06.2018 20:00:00 15,0 11,0 37 20 52 28 WZW 1014,0 15 0,0
16.06.2018 19:00:00 15,3 11,6 42 23 50 27 WZW 1013,7 13 0,0
16.06.2018 18:00:00 16,1 12,0 42 23 55 30 WZW 1013,7 16 0,0
16.06.2018 17:00:00 16,4 12,1 46 25 57 31 WZW 1013,4 17 0,0
16.06.2018 16:00:00 17,2 9,7 39 21 52 28 W 1013,3 30 0,0
16.06.2018 15:00:00 16,8 11,1 37 20 52 28 W 1012,5 26 0,0
16.06.2018 14:00:00 16,3 12,8 44 24 54 29 W 1011,8 24 0,0
16.06.2018 13:00:00 15,3 14,7 39 21 55 30 ZZW 1011,1 15 0,2
16.06.2018 12:00:00 14,3 13,6 42 23 55 30 Z 1011,5 9 0,2
16.06.2018 11:00:00 14,4 12,9 42 23 54 29 Z 1011,8 13 0,0
16.06.2018 10:00:00 13,8 12,6 44 24 54 29 Z 1012,0 3,4 0,0
16.06.2018 09:00:00 14,2 12,0 39 21 46 25 Z 1012,3 13 0,0
16.06.2018 08:00:00 13,9 11,8 37 20 48 26 Z 1012,5 14 0,0
16.06.2018 07:00:00 13,4 11,8 34 18 50 27 ZZW 1012,8 21 0,0
16.06.2018 06:00:00 13,1 11,4 37 20 46 25 ZZW 1012,9 26 0,4
16.06.2018 05:00:00 12,7 11,4 44 24 54 29 ZZW 1013,3 2,6 0,6
16.06.2018 04:00:00 13,6 11,2 35 19 - - Z 1013,6 30 0,0
16.06.2018 03:00:00 13,6 10,4 29 16 - - ZZW 1014,3 30 0,0
16.06.2018 02:00:00 13,6 10,3 24 13 - - ZZW 1014,8 30 0,0
16.06.2018 01:00:00 14,1 10,2 26 14 - - ZZW 1015,5 35 0,0
16.06.2018 00:00:00 13,9 9,9 24 13 - - ZZW 1015,4 35 0,0
15.06.2018 23:00:00 13,8 10,9 28 15 - - ZW 1015,9 23 0,0
15.06.2018 22:00:00 13,9 11,1 28 15 - - ZZW 1016,1 18 0,0
15.06.2018 21:00:00 13,8 10,8 22 12 - - ZZW 1016,5 16 0,0
15.06.2018 20:00:00 14,1 9,9 22 12 - - ZW 1016,6 17 0,0
15.06.2018 19:00:00 14,7 8,8 28 15 - - ZW 1016,8 17 0,0
15.06.2018 18:00:00 15,0 8,3 26 14 - - ZW 1016,9 26 0,0
15.06.2018 17:00:00 15,1 9,4 31 17 - - ZW 1017,4 30 0,0
15.06.2018 16:00:00 16,1 10,8 28 15 - - ZW 1017,6 30 0,0
15.06.2018 15:00:00 16,4 11,5 26 14 - - ZZW 1017,8 29 0,0
15.06.2018 14:00:00 16,0 10,5 31 17 - - ZW 1017,9 29 0,0
15.06.2018 13:00:00 15,7 9,9 31 17 - - ZW 1017,9 28 0,0
15.06.2018 12:00:00 16,1 9,8 16 9 - - WZW 1017,6 28 0,0
15.06.2018 11:00:00 15,6 11,3 22 12 - - WZW 1017,5 21 0,0
15.06.2018 10:00:00 15,1 11,5 22 12 - - WZW 1017,6 14 0,0
15.06.2018 09:00:00 14,4 10,8 21 11 - - WZW 1017,4 14 0,0
15.06.2018 08:00:00 14,0 11,0 16 9 - - WZW 1017,2 11 0,0
15.06.2018 07:00:00 13,3 11,1 9 5 - - W 1017,2 13 0,0
15.06.2018 06:00:00 12,5 10,3 15 8 - - WNW 1017,1 15 0,0
15.06.2018 05:00:00 12,4 10,4 26 14 - - W 1017,0 19 0,0
15.06.2018 04:00:00 12,1 11,0 11 6 - - W 1016,6 13 0,0
15.06.2018 03:00:00 13,1 11,3 18 10 - - W 1016,7 14 0,0
15.06.2018 02:00:00 12,7 10,6 9 5 - - WNW 1016,8 14 0,0
15.06.2018 01:00:00 11,7 9,3 4 2 - - N 1016,8 12 0,0
15.06.2018 00:00:00 13,8 11,3 13 7 - - W 1016,8 15 0,0
14.06.2018 23:00:00 14,1 10,9 15 8 - - WNW 1016,8 14 0,0
14.06.2018 22:00:00 14,8 11,0 24 13 - - W 1016,8 12 0,0
14.06.2018 21:00:00 15,6 11,1 29 16 - - W 1016,2 12 0,0
14.06.2018 20:00:00 16,5 11,1 29 16 - - W 1015,8 11 0,0
14.06.2018 19:00:00 16,5 10,2 31 17 46 25 WZW 1015,3 10 0,0
14.06.2018 18:00:00 16,5 11,3 35 19 - - WZW 1015,1 11 0,0
14.06.2018 17:00:00 18,5 9,3 31 17 - - W 1014,6 16 0,0
14.06.2018 16:00:00 18,2 10,8 34 18 48 26 W 1014,0 21 0,0

tt = temperatuur
td = dauwpunt
ff = windsnelheid
fx = windstoten
dd = windrichting
ppp = luchtdruk
vv = zicht
rr = neerslag

Weerstations in de omgeving